QPF
0.00 0.00 0.00 0.00 0.00 0.00 0.00 0.00 0.00 0.00 0.00 0.00 0.00 0.00 0.00 0.00 0.00 0.00 0.00 0.00 0.00 0.00 0.00 0.00 0.00 0.00 0.00 0.00 0.00 0.00 0.00 0.00 0.00 0.00 0.00 0.00 0.00 0.00 0.00 0.00 0.00 0.00 0.00 0.00 0.00
0.00 0.00 0.00 0.00 0.00 0.00 0.00 0.00 0.00 0.00 0.00 0.00 0.00 0.00 0.00 0.00 0.00 0.00 0.00 0.00 0.00 0.00 0.00 0.00 0.00 0.00 0.00 0.00 0.00 0.00 0.00 0.00 0.00 0.00 0.00 0.00 0.00 0.00 0.00 0.00 0.00 0.00 0.00 0.00 0.00
0.00 0.00 0.00 0.00 0.00 0.00 0.00 0.00 0.00 0.00 0.00 0.00 0.00 0.00 0.00 0.00 0.00 0.00 0.00 0.00 0.00 0.00 0.00 0.00 0.00 0.00 0.00 0.00 0.00 0.00 0.00 0.00 0.00 0.00 0.00 0.00 0.00 0.00 0.00 0.00 0.00 0.00 0.00 0.00 0.00
0.00 0.00 0.00 0.00 0.00 0.00 0.00 0.00 0.00 0.00 0.00 0.00 0.00 0.00 0.00 0.00 0.00 0.00 0.00 0.00 0.00 0.00 0.00 0.00 0.00 0.00 0.00 0.00 0.00 0.00 0.00 0.00 0.00 0.00 0.00 0.00 0.00 0.00 0.00 0.00 0.00 0.00 0.00 0.00 0.00
0.00 0.00 0.00 0.00 0.00 0.00 0.00 0.00 0.00 0.00 0.00 0.00 0.00 0.00 0.00 0.00 0.00 0.00 0.00 0.00 0.00 0.00 0.00 0.00 0.00 0.00 0.00 0.00 0.00 0.00 0.00 0.00 0.00 0.00 0.00 0.00 0.00 0.00 0.00 0.00 0.00 0.00 0.00 0.00 0.00
0.00 0.00 0.00 0.00 0.00 0.00 0.00 0.00 0.00 0.00 0.00 0.00 0.00 0.00 0.00 0.00 0.00 0.00 0.00 0.00 0.00 0.00 0.00 0.00 0.00 0.00 0.00 0.00 0.00 0.00 0.00 0.00 0.00 0.00 0.00 0.00 0.00 0.00 0.00 0.00 0.00 0.00 0.00 0.00 0.00
0.00 0.00 0.00 0.00 0.00 0.00 0.00 0.00 0.00 0.00 0.00 0.00 0.00 0.00 0.00 0.00 0.00 0.00 0.00 0.00 0.00 0.00 0.00 0.00 0.00 0.00 0.00 0.00 0.00 0.00 0.00 0.00 0.00 0.00 0.00 0.00 0.00 0.00 0.00 0.00 0.00 0.00 0.00 0.00 0.00
0.00 0.00 0.00 0.00 0.00 0.00 0.00 0.00 0.00 0.00 0.00 0.00 0.00 0.00 0.00 0.00 0.00 0.00 0.00 0.00 0.00 0.00 0.00 0.00 0.00 0.00 0.00 0.00 0.00 0.00 0.00 0.00 0.00 0.00 0.00 0.00 0.00 0.00 0.00 0.00 0.00 0.00 0.00 0.00 0.00
0.00 0.00 0.00 0.00 0.00 0.00 0.00 0.00 0.00 0.00 0.00 0.00 0.00 0.00 0.00 0.00 0.00 0.00 0.00 0.00 0.00 0.00 0.00 0.00 0.00 0.00 0.00 0.00 0.00 0.00 0.00 0.00 0.00 0.00 0.00 0.00 0.00 0.00 0.00 0.00 0.00 0.00 0.00 0.00 0.00
0.00 0.00 0.00 0.00 0.00 0.00 0.00 0.00 0.00 0.00 0.00 0.00 0.00 0.00 0.00 0.00 0.00 0.00 0.00 0.00 0.00 0.00 0.00 0.00 0.00 0.00 0.00 0.00 0.00 0.00 0.00 0.00 0.00 0.00 0.00 0.00 0.00 0.00 0.00 0.00 0.00 0.00 0.00 0.00 0.00
0.00 0.00 0.00 0.00 0.00 0.00 0.00 0.00 0.00 0.00 0.00 0.00 0.00 0.00 0.00 0.00 0.00 0.00 0.00 0.00 0.00 0.00 0.00 0.00 0.00 0.00 0.00 0.00 0.00 0.00 0.00 0.00 0.00 0.00 0.00 0.00 0.00 0.00 0.00 0.00 0.00 0.00 0.00 0.00 0.00
0.00 0.00 0.00 0.00 0.00 0.00 0.00 0.00 0.00 0.00 0.00 0.00 0.00 0.00 0.00 0.00 0.00 0.00 0.00 0.00 0.00 0.00 0.00 0.00 0.00 0.00 0.00 0.00 0.00 0.00 0.00 0.00 0.00 0.00 0.00 0.00 0.00 0.00 0.00 0.00 0.00 0.00 0.00 0.00 0.00
0.00 0.00 0.00 0.00 0.00 0.00 0.00 0.00 0.00 0.00 0.00 0.00 0.00 0.00 0.00 0.00 0.00 0.00 0.00 0.00 0.00 0.00 0.00 0.00 0.00 0.00 0.00 0.00 0.00 0.00 0.00 0.00 0.00 0.00 0.00 0.00 0.00 0.00 0.00 0.00 0.00 0.00 0.00 0.00 0.00
0.00 0.00 0.00 0.00 0.00 0.00 0.00 0.00 0.00 0.00 0.00 0.00 0.00 0.00 0.00 0.00 0.00 0.00 0.00 0.00 0.00 0.00 0.00 0.00 0.00 0.00 0.00 0.00 0.00 0.00 0.00 0.00 0.00 0.00 0.00 0.00 0.00 0.00 0.00 0.00 0.00 0.00 0.00 0.00 0.00
0.00 0.00 0.00 0.00 0.00 0.00 0.00 0.00 0.00 0.00 0.00 0.00 0.00 0.00 0.00 0.00 0.00 0.00 0.00 0.00 0.00 0.00 0.00 0.00 0.00 0.00 0.00 0.00 0.00 0.00 0.00 0.00 0.00 0.00 0.00 0.00 0.00 0.00 0.00 0.00 0.00 0.00 0.00 0.00 0.00
0.00 0.00 0.00 0.00 0.00 0.00 0.00 0.00 0.00 0.00 0.00 0.00 0.00 0.00 0.00 0.00 0.00 0.00 0.00 0.00 0.00 0.00 0.00 0.00 0.00 0.00 0.00 0.00 0.00 0.00 0.00 0.00 0.00 0.00 0.00 0.00 0.00 0.00 0.00 0.00 0.00 0.00 0.00 0.00 0.00
0.00 0.00 0.00 0.00 0.00 0.00 0.00 0.00 0.00 0.00 0.00 0.00 0.00 0.00 0.00 0.00 0.00 0.00 0.00 0.00 0.00 0.00 0.00 0.00 0.00 0.00 0.00 0.00 0.00 0.00 0.00 0.00 0.00 0.00 0.00 0.00 0.00 0.00 0.00 0.00 0.00 0.00 0.00 0.00 0.00
0.00 0.00 0.00 0.00 0.00 0.00 0.00 0.00 0.00 0.00 0.00 0.00 0.00 0.00 0.00 0.00 0.00 0.00 0.00 0.00 0.00 0.00 0.00 0.00 0.00 0.00 0.00 0.00 0.00 0.00 0.00 0.00 0.00 0.00 0.00 0.00 0.00 0.00 0.00 0.00 0.00 0.00 0.00 0.00 0.00
0.00 0.00 0.00 0.00 0.00 0.00 0.00 0.00 0.00 0.00 0.00 0.00 0.00 0.00 0.00 0.00 0.00 0.00 0.00 0.00 0.00 0.00 0.00 0.00 0.00 0.00 0.00 0.00 0.00 0.00 0.00 0.00 0.00 0.00 0.00 0.00 0.00 0.00 0.00 0.00 0.00 0.00 0.00 0.00 0.00
0.00 0.00 0.00 0.00 0.00 0.00 0.00 0.00 0.00 0.00 0.00 0.00 0.00 0.00 0.00 0.00 0.00 0.00 0.00 0.00 0.00 0.00 0.00 0.00 0.00 0.00 0.00 0.00 0.00 0.00 0.00 0.00 0.00 0.01 0.00 0.00 0.00 0.00 0.00 0.00 0.00 0.00 0.00 0.00 0.00
0.00 0.00 0.00 0.00 0.00 0.00 0.00 0.00 0.00 0.00 0.00 0.00 0.00 0.00 0.00 0.00 0.00 0.00 0.00 0.00 0.00 0.00 0.00 0.00 0.00 0.00 0.00 0.00 0.00 0.00 0.00 0.00 0.01 0.00 0.01 0.01 0.00 0.00 0.00 0.00 0.00 0.00 0.00 0.00 0.00
0.00 0.00 0.00 0.00 0.00 0.00 0.00 0.00 0.00 0.00 0.00 0.00 0.00 0.00 0.00 0.00 0.00 0.00 0.00 0.00 0.00 0.00 0.00 0.00 0.00 0.00 0.00 0.00 0.00 0.00 0.00 0.00 0.01 0.00 0.01 0.01 0.00 0.00 0.00 0.00 0.00 0.00 0.00 0.00 0.00
0.00 0.00 0.00 0.00 0.00 0.00 0.00 0.00 0.00 0.00 0.00 0.00 0.00 0.00 0.00 0.00 0.00 0.00 0.00 0.00 0.00 0.00 0.00 0.00 0.00 0.00 0.00 0.00 0.00 0.00 0.00 0.00 0.00 0.01 0.01 0.01 0.00 0.00 0.00 0.00 0.00 0.00 0.00 0.00 0.00
0.00 0.00 0.00 0.00 0.00 0.00 0.00 0.00 0.00 0.00 0.00 0.00 0.00 0.00 0.00 0.00 0.00 0.00 0.00 0.00 0.00 0.00 0.00 0.00 0.00 0.00 0.00 0.00 0.00 0.00 0.00 0.00 0.00 0.01 0.00 0.00 0.00 0.00 0.00 0.00 0.00 0.00 0.00 0.00 0.00
0.00 0.00 0.00 0.00 0.00 0.00 0.00 0.00 0.00 0.00 0.00 0.00 0.00 0.00 0.00 0.00 0.00 0.00 0.00 0.00 0.00 0.00 0.00 0.00 0.00 0.00 0.00 0.00 0.00 0.00 0.00 0.00 0.00 0.00 0.00 0.00 0.00 0.00 0.00 0.00 0.00 0.00 0.00 0.00 0.00
0.00 0.00 0.00 0.00 0.00 0.00 0.00 0.00 0.00 0.00 0.00 0.00 0.00 0.00 0.00 0.00 0.00 0.00 0.00 0.00 0.00 0.00 0.00 0.00 0.00 0.00 0.00 0.00 0.00 0.00 0.00 0.00 0.00 0.00 0.00 0.00 0.00 0.00 0.00 0.00 0.00 0.00 0.00 0.00 0.00
0.00 0.00 0.00 0.00 0.00 0.00 0.00 0.00 0.00 0.00 0.00 0.00 0.00 0.00 0.00 0.00 0.00 0.00 0.00 0.00 0.00 0.00 0.00 0.00 0.00 0.01 0.00 0.01 0.00 0.00 0.00 0.00 0.00 0.00 0.00 0.00 0.00 0.00 0.00 0.00 0.00 0.00 0.00 0.00 0.00
MSLP
1017.67 1017.43 1017.22 1016.94 1016.67 1016.43 1016.21 1015.97 1015.76 1015.54 1015.28 1014.90 1014.44 1014.29 1014.02 1013.55 1012.49 1011.95 1010.97 1011.59 1011.13 1010.60 1010.49 1009.15 1007.38 1006.74 1006.44 1005.77 1005.36 1005.14 1004.63 1003.08 1001.64 1000.82 1000.49 999.51 1000.35 1001.06 1001.70 1002.28 1002.37 1002.41 1002.26 1001.62 1001.47
1017.80 1017.50 1017.26 1016.99 1016.69 1016.40 1016.12 1015.92 1015.67 1015.41 1015.17 1014.88 1014.41 1014.10 1013.90 1013.56 1012.16 1010.71 1011.47 1011.20 1010.93 1010.49 1009.70 1007.87 1006.76 1006.43 1005.84 1005.25 1005.00 1004.84 1003.94 1002.57 1001.96 1002.18 1001.81 1001.40 1001.66 1002.04 1002.49 1002.53 1002.68 1002.49 1002.28 1002.17 1001.93
1017.93 1017.60 1017.31 1017.03 1016.77 1016.46 1016.20 1015.86 1015.56 1015.31 1015.04 1014.92 1014.58 1014.11 1013.79 1013.34 1011.43 1010.66 1011.20 1011.09 1010.79 1010.39 1009.63 1007.77 1007.07 1006.37 1005.50 1004.57 1004.57 1004.20 1003.87 1003.28 1002.69 1002.89 1003.04 1002.83 1002.91 1003.06 1002.85 1002.68 1002.60 1002.35 1002.29 1002.29 1002.34
1018.22 1017.80 1017.43 1017.09 1016.82 1016.53 1016.23 1015.92 1015.62 1015.31 1014.97 1015.02 1014.77 1014.38 1013.84 1012.71 1010.46 1010.56 1011.03 1010.83 1010.32 1010.05 1009.16 1007.18 1006.34 1005.80 1005.17 1004.51 1004.01 1004.37 1004.28 1003.91 1003.26 1003.47 1003.62 1003.60 1003.51 1003.34 1003.09 1002.82 1002.69 1002.43 1002.41 1002.62 1002.80
1018.42 1017.95 1017.47 1017.14 1016.85 1016.54 1016.23 1015.92 1015.64 1015.32 1014.91 1014.98 1014.96 1014.66 1013.59 1011.45 1009.62 1010.41 1010.67 1010.29 1009.87 1008.73 1008.06 1007.45 1006.65 1006.53 1005.71 1004.92 1004.94 1004.55 1004.16 1003.87 1003.74 1003.91 1003.88 1003.80 1003.51 1003.25 1002.91 1002.75 1002.54 1002.39 1002.37 1002.55 1002.88
1018.56 1018.06 1017.52 1017.14 1016.84 1016.48 1016.13 1015.84 1015.54 1015.19 1014.81 1014.76 1014.84 1014.79 1013.46 1010.38 1009.11 1009.23 1009.48 1008.98 1008.52 1008.32 1007.91 1007.58 1007.59 1007.41 1006.76 1005.75 1005.52 1004.82 1004.53 1004.34 1004.19 1003.87 1003.68 1003.45 1003.29 1003.01 1002.49 1002.14 1002.00 1002.21 1002.41 1002.41 1002.57
1018.63 1018.13 1017.58 1017.07 1016.72 1016.37 1016.00 1015.65 1015.29 1014.96 1014.62 1014.49 1014.65 1014.01 1011.88 1009.52 1008.82 1008.70 1008.64 1008.40 1008.50 1008.45 1008.23 1008.05 1008.03 1007.82 1007.14 1006.25 1005.30 1005.16 1004.78 1004.13 1003.14 1002.81 1002.92 1003.22 1003.10 1002.50 1001.64 1001.60 1001.67 1002.03 1002.07 1002.26 1002.39
1018.64 1018.11 1017.57 1017.03 1016.55 1016.19 1015.81 1015.38 1015.03 1014.65 1014.29 1014.12 1014.35 1013.48 1010.17 1008.65 1008.49 1008.23 1007.90 1007.86 1007.75 1007.93 1008.07 1008.23 1008.22 1007.78 1006.96 1006.34 1005.67 1004.72 1004.23 1002.97 1001.84 1002.08 1002.31 1002.76 1002.14 1001.92 1001.42 1001.38 1001.82 1002.04 1002.01 1001.99 1002.21
1018.71 1018.03 1017.42 1016.89 1016.42 1016.00 1015.62 1015.21 1014.81 1014.43 1014.24 1013.95 1013.45 1012.15 1008.57 1008.63 1008.25 1008.02 1007.95 1007.79 1007.90 1007.76 1007.48 1007.51 1007.71 1007.18 1006.36 1005.59 1004.59 1003.03 1003.04 1002.55 1001.85 1001.75 1001.98 1002.02 1001.61 1001.75 1001.36 1001.27 1001.25 1001.41 1001.64 1001.72 1001.77
1018.72 1018.06 1017.40 1016.73 1016.16 1015.87 1015.28 1015.08 1014.54 1014.21 1013.53 1013.05 1011.87 1010.68 1008.33 1008.10 1008.09 1008.17 1007.62 1007.77 1007.86 1007.69 1007.12 1006.53 1006.53 1005.93 1005.03 1004.62 1004.35 1004.44 1004.29 1003.87 1003.29 1002.97 1002.43 1001.93 1001.42 1001.17 1000.92 1000.61 1000.40 1000.47 1000.66 1000.81 1000.86
1018.65 1018.02 1017.37 1016.69 1015.99 1015.76 1014.73 1014.45 1014.19 1013.40 1012.31 1010.32 1009.19 1008.58 1007.82 1008.19 1008.16 1007.37 1007.54 1007.56 1007.15 1007.08 1006.28 1005.65 1005.67 1004.92 1004.51 1005.26 1005.66 1005.69 1005.15 1004.36 1003.65 1002.93 1002.28 1001.63 1001.29 1001.06 1000.71 1000.20 999.86 999.97 1000.04 1000.32 1000.45
1018.76 1017.96 1017.26 1016.55 1015.79 1015.43 1015.36 1012.49 1011.68 1011.19 1010.02 1008.44 1008.52 1008.43 1008.15 1008.26 1007.62 1006.96 1007.41 1007.27 1007.08 1006.65 1006.05 1005.31 1004.48 1004.49 1005.25 1005.75 1005.76 1005.43 1004.84 1003.98 1003.17 1002.64 1002.61 1002.00 1001.42 1000.88 999.90 999.32 999.19 999.12 999.35 999.77 1000.01
1018.71 1017.92 1017.16 1016.40 1015.52 1014.77 1012.95 1011.40 1010.70 1010.47 1009.82 1007.61 1007.68 1007.47 1007.21 1007.71 1006.98 1007.06 1007.39 1007.34 1007.07 1006.66 1005.76 1005.58 1005.06 1004.91 1005.47 1005.41 1005.21 1004.82 1004.47 1004.14 1003.90 1003.64 1003.24 1002.28 1000.78 999.49 998.12 997.70 998.22 998.52 998.68 999.25 999.71
1018.54 1017.76 1017.01 1016.26 1015.46 1012.03 1010.78 1010.73 1010.25 1010.53 1009.41 1007.17 1007.08 1006.88 1007.02 1006.83 1006.73 1006.97 1007.35 1007.73 1007.28 1006.57 1006.11 1005.64 1004.90 1005.22 1005.24 1005.19 1004.97 1004.72 1004.84 1004.74 1004.38 1003.95 1003.06 1002.59 1000.59 999.81 998.16 997.28 997.19 997.34 998.02 998.85 999.35
1018.35 1017.50 1016.72 1016.84 1014.75 1011.70 1010.99 1010.58 1010.76 1010.70 1008.49 1006.67 1006.29 1006.83 1006.93 1006.66 1006.37 1006.41 1007.16 1007.46 1007.08 1006.65 1006.83 1005.65 1005.16 1004.93 1004.98 1005.08 1005.49 1005.42 1005.35 1004.81 1004.02 1003.11 1002.61 1001.76 1000.76 998.47 997.96 998.40 997.59 997.58 997.94 998.38 998.99
1018.04 1017.14 1016.52 1014.66 1014.19 1011.59 1010.60 1010.85 1010.96 1010.04 1007.10 1005.88 1005.99 1006.28 1006.22 1006.00 1005.96 1006.13 1006.38 1006.50 1006.47 1006.18 1006.13 1005.17 1004.54 1004.18 1005.14 1005.45 1005.69 1005.23 1004.60 1004.05 1003.25 1001.96 1001.32 1000.81 1001.58 998.88 997.98 998.92 997.94 997.73 997.78 998.29 998.78
1017.48 1016.55 1016.42 1013.85 1011.69 1010.96 1010.93 1010.68 1010.00 1008.11 1006.30 1005.80 1006.05 1006.29 1006.28 1006.21 1005.90 1006.13 1006.15 1006.24 1006.02 1005.70 1005.52 1005.05 1004.06 1004.14 1005.08 1005.35 1005.12 1004.88 1004.92 1004.09 1002.92 1002.05 1001.09 1001.31 1001.51 999.93 999.05 998.37 998.20 997.99 998.22 998.58 998.90
1017.14 1015.67 1013.87 1012.97 1011.53 1011.35 1011.23 1010.61 1009.19 1006.64 1006.05 1006.44 1006.81 1006.84 1006.40 1005.85 1006.36 1006.33 1006.23 1005.83 1005.18 1005.73 1006.11 1005.58 1004.52 1004.12 1004.64 1005.06 1004.96 1004.96 1005.40 1005.06 1004.71 1003.89 1002.80 1002.59 1000.49 999.14 999.70 999.73 998.97 998.86 998.82 998.81 999.27
1016.74 1013.49 1012.60 1011.97 1011.67 1011.72 1011.32 1009.74 1007.95 1007.11 1007.41 1007.70 1007.72 1006.73 1005.75 1005.74 1006.19 1005.94 1005.86 1005.41 1005.38 1005.83 1006.67 1006.26 1005.39 1004.82 1005.22 1004.76 1005.33 1004.83 1005.28 1005.15 1005.40 1005.11 1003.83 1002.11 1000.21 999.03 1000.11 1000.51 1000.95 999.61 999.49 999.33 999.84
1017.15 1013.76 1011.11 1011.03 1011.40 1011.71 1011.03 1009.35 1007.78 1007.49 1008.09 1008.47 1008.32 1007.77 1006.94 1006.57 1006.59 1006.33 1005.97 1005.65 1005.70 1006.37 1007.14 1007.22 1006.50 1006.32 1005.66 1004.90 1005.00 1004.73 1004.71 1004.90 1005.42 1005.32 1003.87 1002.17 1001.26 999.98 1000.11 1000.28 1000.34 1000.49 1000.62 1000.26 1000.58
1016.85 1012.82 1010.96 1010.84 1010.92 1011.12 1009.92 1008.15 1007.30 1007.75 1008.85 1009.25 1008.73 1008.39 1008.20 1007.86 1007.47 1006.96 1006.52 1006.32 1006.07 1006.54 1007.31 1007.85 1007.75 1006.62 1006.02 1005.01 1004.09 1003.58 1003.83 1004.55 1005.35 1005.98 1005.02 1003.45 1001.38 1000.25 999.90 1000.16 1000.27 1000.38 1000.30 1000.68 1000.93
1016.42 1012.84 1010.50 1010.69 1010.64 1009.48 1008.73 1008.28 1008.72 1008.54 1008.91 1009.39 1009.54 1009.26 1008.99 1008.69 1008.19 1007.79 1007.18 1006.63 1006.99 1007.66 1008.21 1008.64 1008.37 1007.11 1006.18 1005.21 1004.43 1004.03 1003.93 1004.40 1005.13 1005.43 1005.09 1004.26 1000.08 1000.88 1000.63 1000.40 1000.20 1000.20 1000.09 1000.50 1001.16
1017.41 1013.27 1010.06 1010.50 1010.11 1009.22 1008.61 1008.70 1008.78 1008.48 1008.89 1009.14 1009.21 1009.28 1009.46 1009.29 1009.04 1008.30 1007.85 1007.66 1007.65 1008.08 1008.85 1009.33 1008.94 1008.11 1006.53 1005.31 1002.78 1003.72 1004.42 1004.23 1004.79 1005.36 1004.49 1003.84 1000.22 1000.99 1000.45 999.79 999.14 999.29 999.90 1000.64 1000.90
1017.90 1013.20 1010.66 1010.34 1010.16 1010.58 1010.14 1009.88 1009.15 1008.52 1008.90 1009.54 1009.69 1009.67 1009.76 1009.60 1009.30 1008.53 1008.00 1007.69 1007.76 1008.10 1008.73 1009.79 1010.00 1009.74 1008.38 1006.95 1006.22 1005.01 1004.49 1004.05 1003.99 1003.77 1002.77 1001.48 999.77 999.66 999.24 998.55 998.66 999.32 999.85 1000.48 1000.69
1017.83 1014.32 1013.20 1012.44 1011.51 1011.43 1011.59 1010.85 1009.92 1009.29 1008.89 1009.00 1009.63 1009.76 1009.60 1009.20 1009.17 1009.02 1008.58 1008.05 1007.84 1007.73 1008.51 1009.07 1008.79 1009.13 1008.11 1007.47 1006.52 1005.22 1004.29 1003.63 1003.26 1002.64 1002.03 999.81 999.41 998.38 998.06 998.05 998.47 999.26 999.99 1000.54 1000.84
1018.14 1016.75 1015.47 1014.58 1013.61 1012.62 1011.53 1010.75 1009.96 1009.38 1009.25 1009.33 1009.53 1009.67 1009.72 1009.73 1009.70 1009.16 1009.22 1009.23 1008.79 1008.36 1008.20 1008.67 1008.15 1008.65 1007.41 1007.45 1006.67 1005.35 1004.25 1003.70 1002.72 1001.39 1000.14 999.38 997.95 997.80 997.84 998.27 998.70 999.56 1000.28 1000.53 1000.78
1019.19 1018.55 1017.77 1015.47 1014.23 1013.16 1011.67 1010.55 1009.93 1009.83 1009.98 1010.00 1009.95 1009.90 1009.92 1009.83 1009.75 1009.69 1009.67 1009.43 1009.17 1008.99 1008.60 1009.00 1008.97 1009.18 1007.36 1008.28 1007.43 1004.99 1004.14 1002.49 1001.09 1000.11 999.73 998.84 998.54 998.50 998.45 998.35 998.77 999.42 999.73 999.95 1000.34
Thickness
5714 5714 5714 5715 5716 5717 5719 5720 5722 5723 5724 5727 5730 5730 5732 5735 5743 5748 5749 5746 5749 5753 5754 5762 5773 5774 5775 5769 5774 5773 5741 5742 5762 5769 5770 5803 5780 5789 5794 5784 5787 5791 5793 5808 5813
5713 5715 5715 5716 5717 5719 5721 5722 5723 5724 5725 5726 5730 5731 5732 5734 5743 5750 5745 5746 5747 5749 5752 5759 5760 5763 5757 5760 5762 5751 5741 5753 5768 5764 5762 5773 5769 5769 5766 5766 5769 5777 5791 5800 5802
5712 5714 5716 5717 5718 5719 5721 5722 5724 5724 5725 5725 5727 5729 5731 5733 5741 5742 5743 5742 5743 5745 5748 5759 5758 5754 5747 5760 5753 5751 5735 5753 5756 5757 5758 5753 5751 5758 5751 5746 5760 5764 5775 5783 5785
5710 5713 5715 5717 5718 5719 5720 5721 5722 5724 5725 5724 5724 5726 5728 5735 5728 5745 5741 5741 5743 5743 5745 5754 5752 5743 5740 5738 5753 5730 5739 5741 5747 5745 5740 5736 5745 5740 5743 5747 5761 5767 5774 5772 5769
5709 5711 5714 5716 5718 5719 5720 5720 5721 5722 5724 5722 5721 5721 5730 5734 5739 5744 5740 5740 5741 5747 5743 5739 5735 5729 5724 5733 5731 5724 5731 5737 5737 5733 5730 5732 5729 5731 5736 5746 5756 5760 5764 5761 5759
5707 5710 5713 5715 5716 5718 5719 5720 5721 5722 5723 5722 5719 5717 5723 5725 5754 5750 5746 5747 5746 5742 5737 5735 5723 5723 5715 5720 5714 5724 5723 5722 5724 5723 5725 5719 5721 5727 5736 5744 5743 5746 5749 5752 5751
5705 5708 5711 5713 5715 5716 5718 5720 5721 5722 5722 5721 5717 5718 5724 5731 5752 5750 5748 5744 5742 5735 5723 5728 5724 5712 5713 5707 5725 5717 5706 5715 5722 5726 5720 5720 5705 5711 5735 5739 5733 5733 5740 5743 5743
5704 5707 5710 5712 5714 5715 5717 5719 5720 5721 5722 5721 5716 5718 5725 5752 5750 5748 5749 5742 5745 5739 5728 5724 5720 5710 5708 5716 5710 5707 5710 5702 5727 5723 5721 5710 5692 5716 5730 5727 5720 5722 5729 5734 5735
5702 5706 5709 5711 5713 5714 5716 5718 5719 5719 5718 5718 5719 5720 5728 5749 5738 5743 5742 5729 5728 5729 5730 5726 5715 5705 5709 5701 5701 5722 5696 5703 5713 5726 5714 5706 5695 5711 5722 5721 5718 5719 5720 5725 5729
5699 5703 5707 5710 5713 5713 5716 5715 5716 5716 5720 5718 5724 5715 5735 5724 5733 5733 5740 5731 5717 5715 5713 5717 5709 5700 5706 5699 5678 5679 5680 5684 5682 5698 5701 5694 5692 5705 5715 5717 5720 5721 5720 5722 5728
5697 5701 5705 5708 5712 5711 5716 5718 5717 5713 5716 5723 5726 5723 5729 5732 5735 5731 5731 5721 5719 5710 5698 5712 5694 5690 5702 5695 5687 5678 5673 5672 5685 5698 5692 5689 5688 5693 5704 5712 5717 5717 5718 5716 5720
5694 5698 5702 5706 5710 5711 5708 5723 5722 5723 5710 5736 5730 5725 5728 5726 5710 5723 5727 5706 5702 5690 5704 5702 5695 5708 5700 5690 5681 5678 5671 5673 5689 5697 5685 5681 5678 5690 5704 5711 5715 5718 5717 5714 5716
5691 5695 5700 5704 5709 5712 5721 5724 5732 5729 5705 5727 5729 5722 5723 5721 5712 5708 5713 5704 5694 5688 5697 5685 5695 5705 5690 5684 5678 5679 5672 5670 5665 5673 5677 5673 5676 5694 5719 5724 5720 5719 5721 5716 5709
5689 5693 5697 5701 5704 5728 5726 5730 5730 5723 5689 5711 5713 5719 5720 5719 5702 5720 5713 5697 5688 5684 5690 5687 5705 5690 5684 5677 5682 5664 5679 5669 5660 5653 5641 5668 5647 5679 5707 5717 5715 5717 5713 5707 5704
5686 5690 5694 5691 5704 5717 5721 5725 5721 5710 5662 5716 5715 5731 5718 5706 5708 5703 5713 5694 5678 5682 5679 5678 5684 5684 5675 5676 5676 5662 5672 5667 5666 5663 5659 5662 5658 5690 5701 5683 5700 5706 5706 5702 5699
5684 5688 5691 5701 5701 5717 5724 5719 5709 5677 5669 5708 5718 5706 5702 5706 5702 5704 5699 5704 5699 5686 5684 5688 5705 5697 5680 5678 5673 5677 5672 5673 5675 5677 5658 5674 5642 5679 5697 5673 5693 5700 5701 5696 5692
5685 5689 5687 5700 5706 5718 5716 5704 5675 5672 5717 5704 5698 5701 5695 5689 5692 5689 5681 5675 5668 5660 5664 5679 5689 5693 5684 5665 5674 5671 5654 5637 5645 5650 5657 5675 5647 5666 5684 5694 5689 5688 5687 5687 5687
5682 5691 5700 5701 5710 5709 5701 5681 5659 5705 5705 5709 5696 5692 5680 5694 5682 5680 5674 5668 5686 5671 5655 5647 5653 5679 5681 5666 5656 5656 5646 5628 5602 5618 5636 5655 5650 5681 5679 5680 5683 5680 5678 5678 5674
5676 5700 5700 5703 5702 5699 5680 5663 5674 5690 5692 5681 5680 5678 5686 5687 5677 5677 5672 5671 5678 5672 5641 5638 5645 5676 5669 5672 5659 5651 5634 5652 5626 5632 5628 5646 5673 5696 5662 5652 5650 5663 5665 5665 5660
5663 5683 5699 5703 5697 5683 5667 5661 5682 5691 5685 5674 5655 5670 5663 5673 5667 5666 5664 5674 5663 5665 5658 5642 5623 5652 5657 5667 5660 5649 5658 5628 5628 5597 5609 5639 5639 5651 5654 5649 5650 5645 5642 5648 5649
5659 5676 5695 5695 5691 5669 5656 5675 5687 5686 5671 5656 5656 5654 5654 5651 5655 5654 5655 5663 5664 5656 5649 5635 5624 5634 5646 5646 5645 5652 5642 5639 5627 5613 5598 5602 5628 5662 5651 5647 5639 5641 5644 5639 5636
5651 5656 5687 5686 5659 5671 5665 5671 5659 5667 5665 5653 5650 5646 5642 5643 5640 5639 5640 5649 5651 5642 5622 5625 5615 5612 5627 5650 5655 5650 5642 5637 5606 5607 5611 5605 5634 5652 5644 5640 5639 5635 5637 5635 5629
5630 5651 5683 5672 5643 5655 5665 5660 5660 5656 5651 5645 5640 5643 5641 5631 5619 5631 5634 5644 5642 5630 5613 5611 5603 5593 5610 5636 5662 5637 5633 5635 5624 5608 5600 5591 5625 5645 5641 5640 5644 5635 5629 5623 5619
5617 5636 5656 5657 5657 5638 5637 5635 5639 5653 5642 5638 5632 5632 5624 5617 5624 5618 5624 5634 5634 5626 5615 5602 5588 5582 5582 5599 5613 5612 5623 5630 5621 5596 5608 5619 5626 5639 5637 5643 5637 5629 5621 5615 5611
5605 5619 5624 5616 5625 5622 5619 5622 5622 5624 5637 5633 5619 5619 5615 5610 5610 5605 5614 5618 5625 5624 5611 5598 5585 5590 5598 5602 5606 5610 5615 5623 5613 5618 5600 5628 5625 5640 5642 5637 5631 5623 5613 5604 5599
5583 5586 5595 5594 5602 5605 5611 5612 5614 5620 5620 5613 5608 5609 5607 5597 5597 5595 5597 5594 5593 5604 5601 5597 5586 5587 5592 5597 5597 5591 5609 5607 5611 5621 5626 5630 5632 5647 5639 5631 5622 5607 5599 5594 5591
5564 5565 5562 5580 5587 5589 5601 5609 5610 5610 5608 5605 5600 5596 5591 5593 5596 5595 5591 5591 5587 5580 5582 5576 5572 5564 5570 5573 5569 5574 5596 5606 5618 5627 5621 5613 5623 5626 5619 5617 5610 5603 5598 5593 5588